Theta_e
296 297 298 298 299 300 300 300 301 301 300 300 301 303 304 304 303 303 303 302 300 300 299 298 297 298 297 296 294 294 293 292 290 295 294 287 284 284 284 286 287 287 289
294 295 295 295 296 296 296 297 297 297 297 297 297 297 298 301 302 301 301 301 299 298 298 297 296 297 296 296 295 292 293 292 291 290 294 283 283 283 284 283 284 285 286
292 291 291 291 292 293 293 293 294 294 294 294 293 294 295 296 298 300 301 300 300 300 299 296 296 295 294 295 294 294 292 292 291 290 291 284 283 282 282 282 283 284 285
290 289 289 289 289 290 290 290 290 291 291 291 291 291 291 291 292 293 293 296 297 298 298 297 296 295 294 294 293 293 292 291 290 289 289 285 281 281 282 280 279 281 281
289 288 287 288 288 288 287 287 287 288 288 289 289 289 289 289 289 291 291 292 293 293 294 294 295 294 293 295 293 293 292 289 289 288 287 286 282 278 278 280 279 280 280
287 286 286 286 286 286 286 285 286 286 287 287 287 287 287 287 289 292 292 290 290 289 290 291 291 289 290 293 294 295 295 290 288 288 287 286 285 282 281 280 279 276 274
284 284 284 284 284 284 284 284 284 284 284 285 285 285 285 286 289 291 291 290 289 289 289 289 289 289 288 290 292 293 294 295 295 290 287 288 287 285 283 280 279 278 278
282 282 282 282 282 282 282 282 283 283 283 283 284 283 283 284 288 290 290 289 288 288 288 289 288 289 289 288 288 288 289 289 291 292 291 290 290 288 283 282 280 279 279
280 280 281 280 279 279 278 280 281 280 282 281 282 281 280 282 286 288 288 286 286 286 287 287 287 287 289 290 287 286 286 287 290 292 293 293 291 289 284 282 279 277 275
277 278 279 279 275 275 277 278 279 278 279 280 281 281 280 280 284 287 287 286 285 285 286 286 285 286 288 289 287 286 285 285 286 285 287 289 288 287 286 283 281 277 277
275 275 275 275 274 275 276 276 276 277 278 277 279 281 279 280 281 285 287 286 285 285 285 286 286 288 288 289 289 286 285 287 286 285 284 284 284 284 284 283 282 280 278
271 271 270 270 272 274 273 275 276 275 276 277 279 281 283 280 280 283 286 287 288 285 285 286 286 288 288 288 288 289 289 288 285 284 282 282 282 282 283 282 282 282 283
266 266 267 268 270 272 273 275 277 278 277 277 278 280 282 284 281 284 287 287 287 285 285 286 287 287 289 288 288 288 286 285 284 282 281 281 282 282 282 281 281 281 280
262 264 266 267 268 269 271 273 275 277 279 279 279 279 281 283 284 286 284 284 283 283 283 282 284 286 287 286 284 285 285 285 283 282 282 282 282 280 278 279 278 278 276
262 263 264 266 265 266 269 270 272 274 277 279 280 281 281 281 283 286 286 285 283 282 282 282 282 282 282 282 283 283 283 284 282 282 281 279 279 278 277 278 277 276 274
260 262 263 263 264 265 266 267 273 276 278 280 282 283 284 285 286 287 288 288 288 288 284 282 280 279 280 280 280 281 282 281 281 281 280 279 278 278 277 277 277 277 274
257 260 261 262 262 263 264 265 265 269 275 277 279 282 284 285 285 285 286 287 287 287 283 282 278 279 279 279 280 281 280 281 281 281 279 279 279 278 276 276 276 276 275
256 258 259 260 261 262 263 264 265 265 265 268 275 279 282 284 284 284 285 286 284 284 283 282 278 279 279 279 280 280 280 280 280 279 278 278 278 277 276 276 275 275 275
258 259 260 260 261 262 262 263 264 265 266 268 272 277 279 282 283 284 284 283 283 282 281 281 280 280 279 280 280 281 280 280 279 278 278 278 277 277 276 276 276 275 275
257 259 260 260 261 262 263 263 265 266 267 269 271 273 276 279 278 278 279 282 283 282 282 280 280 281 280 280 281 281 280 279 279 279 278 278 278 277 276 275 275 274 274
258 259 260 260 260 262 263 264 265 266 267 268 270 272 277 274 277 279 280 281 281 281 281 280 281 281 281 281 280 281 280 279 279 279 279 279 278 277 277 277 276 275 275
257 257 258 258 260 261 262 263 264 264 264 264 265 267 271 268 268 267 268 269 269 270 271 274 280 280 280 281 280 280 279 279 279 279 279 279 279 278 278 277 276 275 273
255 256 257 257 258 259 260 261 262 262 262 263 263 263 264 264 264 264 264 265 266 266 266 268 270 270 270 271 272 275 278 278 278 279 278 278 277 277 277 275 274 272 271
252 253 255 256 256 257 258 259 260 261 261 261 261 262 262 262 262 262 263 263 263 263 263 264 264 264 266 267 268 268 269 271 273 277 278 276 275 274 274 272 271 270 269
251 252 253 254 255 256 256 257 258 258 259 260 260 261 261 261 261 261 262 262 262 262 262 262 262 263 264 265 266 266 267 266 267 268 270 271 271 270 269 269 268 267 266
249 250 251 253 253 253 255 256 256 257 258 259 259 260 260 260 260 260 261 261 261 261 261 261 261 262 263 264 266 269 269 269 266 266 267 268 268 267 267 266 266 265 265
Wind_Speed
7 6 6 6 5 5 4 3 3 3 2 3 3 4 4 4 4 5 6 6 9 10 10 10 12 12 9 9 9 9 10 10 15 12 7 8 10 12 12 14 14 15 14
6 7 8 6 6 6 5 4 3 3 2 4 4 4 5 6 6 8 8 7 9 10 11 11 13 9 12 12 9 12 13 12 12 19 10 6 10 11 10 13 11 11 12
8 8 8 7 7 6 5 5 4 4 4 4 3 4 5 6 7 9 10 10 11 12 12 12 13 12 13 10 12 11 11 10 12 13 12 3 7 5 8 8 11 11 10
7 8 8 8 7 5 5 5 5 5 4 4 3 5 5 5 7 7 7 10 10 10 11 12 12 14 14 13 12 14 11 11 11 11 11 6 4 4 7 8 9 9 9
6 7 6 4 3 3 4 4 4 4 4 4 4 5 5 5 5 7 8 10 11 11 11 11 12 13 17 17 10 12 12 12 10 10 11 8 7 5 12 7 10 8 9
6 7 3 4 4 5 6 6 5 6 6 5 5 5 5 5 11 15 14 9 10 10 12 12 11 12 14 21 24 27 18 13 15 12 11 13 14 11 8 9 9 6 6
6 6 8 8 8 7 6 6 6 6 4 4 5 4 6 7 12 15 15 9 11 11 12 11 10 8 11 13 19 25 26 27 26 14 16 16 14 13 11 11 12 12 9
8 8 9 10 9 9 8 7 6 5 6 6 7 6 6 8 14 16 15 10 10 12 14 14 13 13 11 13 15 15 15 14 15 15 18 16 13 9 15 14 15 11 2
8 7 7 7 8 9 9 9 9 5 7 6 6 8 7 9 13 14 13 8 10 13 11 11 12 14 16 19 16 16 15 14 14 22 24 22 18 18 17 9 9 10 6
8 9 8 7 6 7 7 8 5 6 9 7 10 9 8 10 13 15 13 7 10 10 10 11 17 16 19 23 16 14 16 13 10 8 10 17 15 17 27 16 12 13 9
7 7 7 7 8 7 8 6 7 9 9 8 10 9 9 9 9 15 16 8 9 10 10 10 9 17 22 24 25 14 17 12 11 9 9 8 9 11 11 12 14 13 13
10 10 10 9 8 8 10 8 8 8 10 10 10 11 6 6 10 13 16 17 15 12 14 10 10 17 22 24 19 22 24 20 7 7 6 8 8 8 9 10 10 10 8
10 10 10 10 9 9 9 11 10 9 8 9 8 10 11 7 4 14 18 19 19 14 11 17 25 23 23 20 25 23 17 9 7 8 8 8 8 8 8 7 7 7 8
9 9 9 9 11 9 8 7 8 8 9 11 10 12 11 11 8 7 6 8 12 12 14 11 14 19 21 15 11 12 7 7 8 8 7 6 5 7 7 8 7 7 6
7 8 8 8 9 10 9 9 10 10 12 12 13 13 13 15 13 18 16 10 8 10 12 8 8 7 8 7 6 7 7 5 7 5 4 5 5 6 6 7 7 7 5
7 6 6 7 7 8 9 12 16 23 24 26 28 22 14 22 30 26 26 26 26 23 9 10 7 7 7 7 7 7 7 7 7 6 5 7 7 7 7 7 7 7 8
6 8 6 7 7 7 8 9 14 14 22 23 23 25 25 25 27 27 28 28 26 18 9 9 6 7 7 7 7 7 5 5 5 7 7 7 7 6 9 8 8 7 7
6 10 7 6 7 7 8 9 9 11 15 15 14 22 23 26 26 27 26 23 10 8 7 7 7 7 6 6 6 5 3 5 5 5 6 6 6 7 8 7 8 9 8
6 6 6 7 7 8 8 8 8 10 11 13 14 15 14 23 25 24 23 10 9 6 6 6 6 6 5 5 5 4 4 5 5 6 6 6 6 6 7 7 7 10 9
5 9 8 7 7 8 7 8 9 10 11 11 11 13 13 12 10 9 7 8 7 5 5 5 5 5 5 4 4 4 4 4 5 5 6 6 7 7 7 8 8 8 8
5 6 8 7 7 7 8 8 9 10 10 10 11 12 27 13 10 9 7 6 5 3 3 3 4 3 3 3 3 3 4 4 5 5 5 6 6 7 7 7 7 7 6
4 5 6 6 7 7 7 7 8 9 9 9 10 10 22 8 8 8 8 8 8 7 6 6 3 2 2 2 3 3 4 4 4 4 5 5 6 6 6 6 7 7 7
4 5 6 5 5 8 7 6 7 8 8 8 9 9 9 8 8 9 9 9 8 8 8 8 7 5 6 5 5 4 2 3 3 4 4 4 5 5 6 6 7 7 7
3 4 5 5 5 6 6 7 7 8 8 8 8 8 8 8 8 9 8 8 8 8 8 8 7 10 8 7 6 6 5 4 3 1 4 4 4 5 4 5 6 6 6
4 4 4 5 5 6 7 6 6 7 7 7 8 8 8 8 8 8 8 8 7 8 8 7 7 9 10 10 9 9 9 10 8 6 3 2 4 5 4 4 5 6 6
3 4 4 4 4 4 5 6 6 6 7 7 6 7 7 7 7 7 7 8 7 7 8 6 8 11 11 9 10 9 9 9 8 8 4 3 3 3 3 4 7 5 7
Wind_Direction
45 47 48 40 49 62 59 34 336 306 291 271 261 260 249 243 223 224 227 216 216 225 222 225 230 226 227 225 219 222 228 226 251 258 230 194 196 205 210 211 216 215 218
46 51 55 42 37 41 35 20 325 290 261 238 236 229 235 233 225 230 240 226 225 227 230 227 230 227 230 231 226 219 224 223 236 258 249 191 209 212 209 205 207 212 215
54 58 47 42 40 32 20 9 353 347 331 314 287 272 262 244 242 243 243 244 240 239 233 227 228 223 228 226 228 233 226 228 231 248 259 182 204 174 201 202 208 211 212
57 59 54 35 30 25 14 14 11 352 340 323 298 272 257 249 242 246 246 257 256 250 246 240 233 229 233 233 232 231 226 227 228 236 246 230 193 190 199 197 209 204 204
54 56 47 26 25 15 25 13 357 354 335 324 312 303 291 270 256 247 242 246 250 253 249 246 244 241 236 235 236 237 229 222 224 227 236 227 207 181 201 194 212 198 203
53 44 20 23 13 15 12 2 4 3 3 355 338 304 290 262 260 259 257 250 244 244 251 249 242 239 242 244 241 241 233 222 229 225 229 231 226 217 197 197 187 168 202
38 23 18 13 10 3 347 348 351 345 331 317 307 299 290 285 287 278 266 255 262 257 256 255 254 244 243 250 249 249 248 241 233 226 234 229 235 211 191 190 193 199 208
25 17 11 4 355 349 347 343 333 319 320 309 300 290 283 287 290 287 279 266 259 257 257 256 257 258 244 238 252 252 249 245 243 235 238 242 237 207 189 188 193 192 140
12 360 354 349 338 337 335 328 320 307 315 297 281 283 267 276 278 281 284 270 265 265 260 252 250 257 253 250 248 255 256 251 243 241 242 243 226 188 175 164 177 170 176
354 338 333 325 310 305 298 297 280 286 284 282 288 274 259 269 279 283 282 269 271 274 269 256 236 242 254 256 252 249 255 255 242 234 234 239 210 192 183 184 175 183 174
336 329 331 325 314 297 300 296 295 299 296 290 284 282 257 254 269 275 275 267 266 277 275 274 261 246 245 253 254 248 248 262 250 231 229 220 197 190 191 191 185 187 185
348 340 332 327 325 322 316 312 311 305 305 306 301 300 280 255 252 264 267 271 275 275 277 277 274 264 243 254 259 255 257 256 244 218 211 207 195 191 187 184 188 193 199
344 333 325 322 321 320 316 315 313 313 306 302 302 298 295 288 245 259 272 280 279 279 277 279 281 278 265 254 259 258 257 242 230 218 209 204 195 184 174 169 168 163 122
327 321 320 322 319 320 311 301 298 299 295 295 294 291 294 296 294 290 249 258 267 274 278 281 279 278 270 244 252 249 251 243 217 218 211 196 164 156 162 155 152 162 123
318 311 311 314 315 312 302 302 296 284 281 287 285 286 289 290 289 294 290 284 265 250 266 263 264 264 267 247 245 241 244 229 207 196 176 164 164 157 157 154 144 151 141
311 312 308 304 306 304 305 304 291 291 293 291 291 287 284 278 291 292 291 287 280 277 274 276 264 251 248 245 246 250 238 212 196 171 164 171 169 166 161 155 153 171 148
290 300 302 302 298 299 298 298 309 309 300 300 299 298 293 289 293 294 292 288 282 274 259 272 250 242 244 244 250 248 226 212 174 178 173 175 168 169 158 165 163 170 162
275 279 283 288 291 293 293 296 296 301 311 312 307 304 300 293 294 297 295 294 279 255 260 267 244 238 237 239 244 244 206 181 177 169 171 174 171 168 164 174 173 175 170
293 296 299 296 289 291 293 293 293 293 293 297 307 307 298 293 298 297 295 280 270 251 247 247 238 232 225 231 239 225 197 187 180 171 175 175 176 176 178 184 180 178 167
300 295 302 299 301 303 302 303 305 302 299 297 303 305 305 299 292 288 281 277 265 253 253 236 236 233 223 218 221 209 191 184 182 182 180 178 178 179 182 179 181 178 184
292 301 311 307 307 308 310 314 312 310 311 318 316 324 334 335 322 301 287 305 299 286 267 245 250 238 222 211 206 210 191 192 192 187 185 183 178 181 181 182 179 180 174
315 309 313 308 310 315 318 315 321 319 324 326 325 327 345 349 351 352 358 359 350 353 349 337 306 317 309 243 217 205 204 199 186 190 189 186 183 183 178 177 172 169 162
316 310 312 310 314 319 325 329 330 330 331 334 335 338 346 351 352 355 354 354 355 357 0 360 3 15 12 15 9 349 244 208 199 188 184 181 181 179 174 171 165 161 165
317 313 319 317 328 332 330 331 331 334 338 341 342 345 347 348 350 354 354 355 359 5 11 1 7 20 12 11 10 10 10 5 9 229 177 171 171 161 161 159 166 166 156
330 323 322 320 326 324 322 323 328 333 338 343 343 343 345 348 351 355 354 356 2 5 7 3 0 11 14 17 18 18 22 28 30 21 33 117 150 149 142 147 150 146 141
317 314 305 305 307 305 310 319 321 326 332 334 337 338 340 344 347 349 350 357 358 1 2 2 3 6 6 6 1 7 30 39 35 34 44 70 99 112 121 128 136 136 145